Hourly Weather Ruzanovo

Today, 10 April, Saturday

Time Temperature Precipitation Wind Pressure Humidity
00:00 +2°C° 0 mm 2 mps 750 mmHg 80%
01:00 +2°C° 0 mm 2 mps 750 mmHg 81%
02:00 0°C° 0 mm 3 mps 750 mmHg 83%
03:00 0°C° 0 mm 3 mps 750 mmHg 83%
04:00 0°C° 0 mm 3 mps 750 mmHg 82%
05:00 0°C° 0 mm 3 mps 750 mmHg 82%
06:00 0°C° 0 mm 3 mps 751 mmHg 81%
07:00 +1°C° 0 mm 3 mps 750 mmHg 76%
08:00 +1°C° 0 mm 4 mps 750 mmHg 71%
09:00 +3°C° 0 mm 5 mps 750 mmHg 66%
10:00 +3°C° 0 mm 5 mps 750 mmHg 64%
11:00 +3°C° 0 mm 5 mps 750 mmHg 61%
12:00 +5°C° 0 mm 5 mps 750 mmHg 59%
13:00 +5°C° 0 mm 5 mps 750 mmHg 62%
14:00 +5°C° 0 mm 5 mps 750 mmHg 64%
15:00 +5°C° 0 mm 5 mps 749 mmHg 65%
16:00 +4°C° 0 mm 4 mps 749 mmHg 70%
17:00 +4°C° 0 mm 4 mps 749 mmHg 74%
18:00 +3°C° 0 mm 4 mps 749 mmHg 78%
19:00 +3°C° 0 mm 4 mps 749 mmHg 82%
20:00 +2°C° 0 mm 3 mps 749 mmHg 86%
21:00 +2°C° 0 mm 3 mps 749 mmHg 90%
22:00 +2°C° 0 mm 3 mps 749 mmHg 92%
23:00 +1°C° 0 mm 3 mps 749 mmHg 93%

Tomorrow, 11 April, Sunday

Time Temperature Precipitation Wind Pressure Humidity
00:00 +1°C° 0 mm 3 mps 749 mmHg 95%
01:00 +1°C° 0 mm 3 mps 749 mmHg 95%
02:00 0°C° 0 mm 3 mps 750 mmHg 95%
03:00 0°C° 0 mm 3 mps 750 mmHg 95%
04:00 0°C° 0 mm 3 mps 750 mmHg 95%
05:00 0°C° 0 mm 3 mps 750 mmHg 94%
06:00 0°C° 0 mm 3 mps 751 mmHg 94%
07:00 0°C° 0 mm 4 mps 751 mmHg 86%
08:00 +1°C° 0 mm 4 mps 751 mmHg 79%
09:00 +3°C° 0 mm 5 mps 752 mmHg 72%
10:00 +5°C° 0 mm 5 mps 752 mmHg 68%
11:00 +6°C° 0 mm 5 mps 752 mmHg 64%
12:00 +8°C° 0 mm 5 mps 752 mmHg 59%
13:00 +8°C° 0 mm 5 mps 752 mmHg 59%
14:00 +8°C° 0 mm 5 mps 752 mmHg 59%
15:00 +9°C° 0 mm 5 mps 752 mmHg 58%
16:00 +8°C° 0 mm 5 mps 752 mmHg 63%
17:00 +7°C° 0 mm 5 mps 753 mmHg 67%
18:00 +6°C° 0 mm 5 mps 753 mmHg 72%
19:00 +6°C° 0.1 mm 5 mps 753 mmHg 77%
20:00 +5°C° 0.1 mm 5 mps 753 mmHg 81%
21:00 +3°C° 0.1 mm 5 mps 753 mmHg 86%
22:00 +3°C° 0.2 mm 5 mps 753 mmHg 88%
23:00 +3°C° 0.2 mm 5 mps 753 mmHg 91%

Day after tomorrow, 12 April, Monday

Time Temperature Precipitation Wind Pressure Humidity
00:00 +3°C° 0.2 mm 5 mps 753 mmHg 93%
01:00 +3°C° 0.1 mm 5 mps 753 mmHg 94%
02:00 +3°C° 0.1 mm 5 mps 753 mmHg 95%
03:00 +3°C° 0.1 mm 5 mps 753 mmHg 95%
04:00 +3°C° 0 mm 5 mps 753 mmHg 95%
05:00 +3°C° 0 mm 5 mps 753 mmHg 95%
06:00 +3°C° 0 mm 5 mps 752 mmHg 95%
07:00 +5°C° 0 mm 5 mps 752 mmHg 91%
08:00 +7°C° 0 mm 6 mps 753 mmHg 87%
09:00 +8°C° 0 mm 6 mps 753 mmHg 82%
10:00 +10°C° 0 mm 5 mps 753 mmHg 76%
11:00 +13°C° 0 mm 5 mps 752 mmHg 69%
12:00 +14°C° 0 mm 5 mps 752 mmHg 63%
13:00 +16°C° 0 mm 5 mps 752 mmHg 58%
14:00 +17°C° 0 mm 5 mps 752 mmHg 54%
15:00 +19°C° 0 mm 5 mps 752 mmHg 49%
16:00 +18°C° 0 mm 4 mps 752 mmHg 53%
17:00 +17°C° 0 mm 4 mps 752 mmHg 57%
18:00 +17°C° 0 mm 4 mps 751 mmHg 61%
19:00 +14°C° 0 mm 4 mps 752 mmHg 66%
20:00 +13°C° 0 mm 4 mps 752 mmHg 70%
21:00 +12°C° 0 mm 4 mps 752 mmHg 75%
22:00 +11°C° 0 mm 3 mps 752 mmHg 77%
23:00 +10°C° 0 mm 3 mps 752 mmHg 79%

13 April, Tuesday

Time Temperature Precipitation Wind Pressure Humidity
00:00 +10°C° 0 mm 3 mps 752 mmHg 81%
01:00 +9°C° 0 mm 3 mps 752 mmHg 81%
02:00 +9°C° 0 mm 3 mps 752 mmHg 82%
03:00 +8°C° 0 mm 3 mps 752 mmHg 83%
04:00 +8°C° 0 mm 3 mps 752 mmHg 82%
05:00 +8°C° 0 mm 3 mps 752 mmHg 81%
06:00 +8°C° 0 mm 3 mps 752 mmHg 80%
07:00 +8°C° 0 mm 4 mps 752 mmHg 71%
08:00 +10°C° 0 mm 5 mps 752 mmHg 63%
09:00 +13°C° 0 mm 5 mps 752 mmHg 54%
10:00 +14°C° 0 mm 5 mps 751 mmHg 49%
11:00 +16°C° 0 mm 5 mps 751 mmHg 44%
12:00 +17°C° 0 mm 6 mps 751 mmHg 38%
13:00 +19°C° 0 mm 6 mps 751 mmHg 36%
14:00 +19°C° 0 mm 6 mps 750 mmHg 35%
15:00 +20°C° 0 mm 5 mps 750 mmHg 33%
16:00 +19°C° 0 mm 5 mps 750 mmHg 37%
17:00 +18°C° 0 mm 4 mps 750 mmHg 42%
18:00 +17°C° 0 mm 3 mps 749 mmHg 47%
19:00 +16°C° 0 mm 3 mps 749 mmHg 51%
20:00 +13°C° 0 mm 4 mps 749 mmHg 56%
21:00 +12°C° 0 mm 4 mps 750 mmHg 60%
22:00 +11°C° 0 mm 4 mps 749 mmHg 62%
23:00 +10°C° 0 mm 4 mps 749 mmHg 63%

14 April, Wednesday

Time Temperature Precipitation Wind Pressure Humidity
00:00 +10°C° 0 mm 3 mps 749 mmHg 65%
01:00 +9°C° 0 mm 3 mps 749 mmHg 65%
02:00 +9°C° 0 mm 3 mps 749 mmHg 66%
03:00 +9°C° 0 mm 3 mps 749 mmHg 66%
04:00 +8°C° 0 mm 3 mps 749 mmHg 67%
05:00 +8°C° 0 mm 3 mps 749 mmHg 68%
06:00 +8°C° 0 mm 3 mps 748 mmHg 69%
07:00 +10°C° 0 mm 4 mps 748 mmHg 63%
08:00 +12°C° 0 mm 4 mps 748 mmHg 57%
09:00 +14°C° 0 mm 5 mps 748 mmHg 51%
10:00 +15°C° 0 mm 5 mps 748 mmHg 46%
11:00 +17°C° 0 mm 5 mps 748 mmHg 40%
12:00 +19°C° 0 mm 5 mps 748 mmHg 35%
13:00 +19°C° 0 mm 5 mps 748 mmHg 33%
14:00 +20°C° 0 mm 5 mps 747 mmHg 32%
15:00 +20°C° 0 mm 4 mps 747 mmHg 30%
16:00 +19°C° 0 mm 4 mps 747 mmHg 35%
17:00 +18°C° 0 mm 3 mps 746 mmHg 40%
18:00 +17°C° 0 mm 3 mps 746 mmHg 45%
19:00 +14°C° 0 mm 3 mps 746 mmHg 50%
20:00 +13°C° 0 mm 3 mps 746 mmHg 54%
21:00 +12°C° 0 mm 3 mps 746 mmHg 58%
22:00 +11°C° 0 mm 3 mps 746 mmHg 60%
23:00 +10°C° 0 mm 3 mps 746 mmHg 62%

15 April, Thursday

Time Temperature Precipitation Wind Pressure Humidity
00:00 +10°C° 0 mm 3 mps 746 mmHg 64%
01:00 +10°C° 0 mm 3 mps 745 mmHg 65%
02:00 +9°C° 0 mm 3 mps 745 mmHg 65%
03:00 +9°C° 0 mm 3 mps 745 mmHg 66%
04:00 +9°C° 0 mm 3 mps 745 mmHg 67%
05:00 +8°C° 0 mm 2 mps 745 mmHg 68%
06:00 +8°C° 0 mm 2 mps 744 mmHg 69%
07:00 +10°C° 0 mm 2 mps 744 mmHg 64%
08:00 +12°C° 0 mm 2 mps 744 mmHg 60%
09:00 +14°C° 0 mm 2 mps 744 mmHg 55%
10:00 +16°C° 0 mm 3 mps 744 mmHg 50%
11:00 +17°C° 0 mm 3 mps 744 mmHg 44%
12:00 +19°C° 0 mm 3 mps 743 mmHg 39%
13:00 +19°C° 0 mm 3 mps 743 mmHg 37%
14:00 +19°C° 0 mm 3 mps 743 mmHg 35%
15:00 +20°C° 0 mm 3 mps 742 mmHg 33%
16:00 +19°C° 0 mm 2 mps 742 mmHg 37%
17:00 +18°C° 0 mm 2 mps 741 mmHg 41%
18:00 +18°C° 0 mm 1 mps 741 mmHg 45%
19:00 +16°C° 0 mm 1 mps 741 mmHg 48%
20:00 +15°C° 0 mm 2 mps 740 mmHg 51%
21:00 +14°C° 0 mm 2 mps 740 mmHg 55%
22:00 +13°C° 0 mm 2 mps 740 mmHg 64%
23:00 +11°C° 0 mm 3 mps 739 mmHg 74%
Show more